Location: Downe
(51.3167°N, 0.0500°E)
Time: 23:49:14
(UTC+00:00)

SL-16 R/B - Pass Details

Date: 17 November 2019
Orbit: 842 x 846 km, 71.0° (Epoch: 12 December)

Event Time Altitude Azimuth Distance (km) Brightness Sun altitude
Exits shadow 03:10:31 25° 41° (NE) 1,646 4.1 -38.4°
Drops below altitude 10° 03:15:02 10° 94° (E) 2,472 5.3 -37.7°
Sets 03:17:55 0° 108° (ESE) 3,404 6.0 -37.3°
